CAPE
0 0 0 0 0 0 0 0 0 0 0 0 0 0 0 0 0 0 0 0 0 0 0 0 0 0 0 0 0 0 0 0 0 0 0 0 0 0 0 0 0 0 0 0
0 0 0 0 0 1 2 1 0 0 0 0 0 0 0 0 0 0 0 0 0 0 0 0 0 0 0 0 0 0 0 0 0 0 0 0 0 0 0 0 0 0 0 0
0 0 0 0 0 3 3 1 1 0 0 0 0 0 0 0 0 0 0 0 0 0 0 0 0 0 0 0 0 0 0 0 0 0 0 0 0 0 0 0 0 0 0 0
0 0 0 0 0 0 0 0 3 0 0 0 0 0 0 0 0 0 0 0 0 0 0 0 0 0 0 0 0 0 0 0 0 0 0 0 0 0 0 0 0 0 0 0
0 0 0 0 0 0 0 1 0 0 0 0 0 0 0 0 0 0 0 0 0 0 0 0 0 0 0 0 0 0 0 0 0 0 0 0 0 0 0 0 0 0 0 0
0 0 0 0 0 0 0 0 14 5 4 0 0 0 0 0 0 0 0 0 0 0 0 0 0 0 0 0 0 0 0 0 0 0 0 0 0 0 0 0 0 0 0 0
2 1 0 0 0 12 22 23 0 1 0 0 0 0 0 0 0 0 0 0 0 0 0 0 0 0 0 0 0 0 0 0 0 0 0 0 0 0 0 0 0 0 0 0
0 0 0 0 0 0 0 0 0 0 0 0 0 0 0 0 0 0 0 0 0 0 0 0 0 0 0 0 0 0 0 0 0 0 0 0 0 0 0 0 0 0 0 0
0 0 0 0 0 0 0 0 0 0 0 0 0 0 0 0 0 0 0 0 0 0 0 0 0 0 0 0 0 0 0 0 0 0 0 0 0 0 0 0 0 0 0 0
0 0 0 0 0 0 0 0 1 12 0 0 0 0 0 0 0 0 0 0 0 0 0 0 0 0 0 0 0 0 0 0 0 0 0 0 0 0 0 0 0 0 0 0
0 0 0 0 0 0 1 6 7 1 0 0 0 0 0 0 0 0 0 0 0 0 0 0 0 0 0 0 0 0 0 0 0 0 0 0 0 0 0 0 0 0 0 0
0 0 0 0 0 0 0 0 4 0 0 0 0 0 0 0 0 0 0 0 0 0 0 0 0 0 0 0 0 0 0 0 0 0 0 0 0 0 0 0 0 0 0 0
0 0 0 0 0 0 0 0 0 3 2 0 0 0 0 0 0 0 0 0 0 0 0 0 0 0 0 0 0 0 0 0 0 0 0 0 0 0 0 0 0 0 0 0
0 0 0 0 0 0 0 0 0 1 10 0 2 0 0 0 0 0 0 0 0 0 0 0 0 0 0 0 0 0 0 0 0 0 0 0 0 0 0 0 0 0 0 0
14 2 0 0 0 0 0 0 0 1 0 0 0 0 0 0 0 0 0 0 0 0 0 0 0 0 0 0 0 0 0 0 0 0 0 0 0 0 0 0 0 0 0 1
1 0 0 0 0 0 0 0 0 0 0 0 0 0 0 0 0 0 0 0 0 0 0 0 0 0 0 0 0 0 0 0 0 0 0 0 0 0 0 1 2 2 1 1
21 8 1 0 0 0 3 0 0 0 0 0 0 0 0 0 0 0 0 0 0 0 0 0 0 0 0 0 0 0 0 0 0 0 0 0 0 0 1 2 2 2 1 0
15 12 15 2 0 7 0 0 0 0 0 0 0 0 0 0 0 0 0 0 0 0 0 0 0 0 0 0 0 0 0 0 0 0 0 0 0 0 0 1 1 1 0 0
0 13 7 23 7 0 0 0 0 0 0 0 0 0 0 0 0 0 0 0 0 0 0 0 0 0 0 0 0 0 0 0 0 0 0 0 0 0 0 0 0 0 0 0
0 2 26 7 2 0 0 0 0 0 0 0 0 0 0 0 0 0 0 0 0 0 0 0 0 0 0 0 0 0 0 0 0 0 0 0 0 0 0 0 0 0 0 0
0 2 12 34 50 2 0 0 0 2 0 0 0 0 0 0 0 0 0 0 0 0 0 0 0 0 0 0 0 0 0 0 0 0 0 0 0 0 0 0 0 0 0 0
0 0 0 0 1 0 0 0 2 0 0 0 0 0 0 0 0 0 0 0 0 0 0 0 0 0 0 0 0 0 0 0 0 0 0 0 0 0 0 0 0 0 1 0
0 0 0 1 0 1 0 0 0 0 0 0 0 0 0 0 0 0 0 0 0 0 0 0 0 0 0 0 0 0 0 0 0 0 0 0 0 0 0 0 0 0 0 0
0 0 0 0 0 0 0 0 0 0 0 0 0 0 0 0 0 0 0 0 0 0 0 0 0 0 0 0 0 0 0 0 0 0 0 0 0 0 0 0 0 0 0 0
0 0 0 0 0 0 0 0 0 0 0 0 0 0 0 0 0 0 0 0 0 0 0 0 0 0 0 0 0 0 0 0 0 0 0 0 0 0 0 0 0 0 0 1
0 0 0 0 0 0 0 0 0 0 0 0 0 0 0 0 0 0 0 0 0 0 0 0 0 0 0 0 0 0 0 0 0 0 0 0 0 0 0 0 0 0 0 0
CIN
0 0 0 0 0 0 0 0 0 0 0 0 0 0 0 0 0 0 0 0 0 0 0 0 0 0 0 0 0 0 0 0 0 0 0 0 0 0 0 0 0 0 0 0
0 0 0 0 0 -2 -2 0 0 0 0 0 0 0 0 0 0 0 0 0 0 0 0 0 0 0 0 0 0 0 0 0 0 0 0 0 0 0 0 0 0 0 0 0
0 0 0 0 -1 0 -2 0 -4 0 0 0 0 0 0 0 0 0 0 0 0 0 0 0 0 0 0 0 0 0 0 0 0 0 0 0 0 0 0 0 0 0 0 0
0 0 0 0 0 0 0 0 -2 0 0 0 0 0 0 0 0 0 0 0 0 0 0 0 0 0 0 0 0 0 0 0 0 0 0 0 0 0 0 0 0 0 0 0
0 0 0 0 0 0 0 -3 0 0 0 -1 0 0 0 0 0 0 0 0 0 0 0 0 0 0 0 0 0 0 0 0 0 0 0 0 0 0 0 0 0 0 0 0
0 0 0 0 0 0 -2 0 -2 -6 -6 0 0 0 0 0 0 0 0 0 0 0 0 0 0 0 0 0 0 0 0 0 0 0 0 0 0 0 0 0 0 0 0 0
0 -1 0 0 0 -9 -3 -1 0 -1 0 0 0 0 0 0 0 0 0 0 0 0 0 0 0 0 0 0 0 0 0 0 0 0 0 0 0 0 0 0 0 0 0 0
0 0 0 0 0 0 0 -1 0 0 0 0 0 0 0 0 0 0 0 0 0 0 0 0 0 0 0 0 0 0 0 0 0 0 0 0 0 0 0 0 0 0 0 0
0 0 0 0 0 0 0 0 0 0 0 0 0 0 0 0 0 0 0 0 0 0 0 0 0 0 0 0 0 0 0 0 0 0 0 0 0 0 0 0 0 0 0 0
0 0 0 0 0 0 0 0 -1 -2 0 0 0 0 0 0 0 0 0 0 0 0 0 0 0 0 0 0 0 0 0 0 0 0 0 0 0 0 0 0 0 0 0 0
0 0 0 0 0 0 -2 -1 -2 -3 0 0 0 0 0 0 0 0 0 0 0 0 0 0 0 0 0 0 0 0 0 0 0 0 0 0 0 0 0 0 0 0 0 0
0 0 0 0 0 0 0 0 -17 0 0 0 0 0 0 0 0 0 0 0 0 0 0 0 0 0 0 0 0 0 0 0 0 0 0 0 0 0 0 0 0 0 0 0
0 -4 -1 0 0 0 0 0 0 -8 -3 0 0 0 0 0 0 0 0 0 0 0 0 0 0 0 0 0 0 0 0 0 0 0 0 0 0 0 0 0 0 0 0 0
0 0 0 0 0 0 0 0 0 -3 -1 0 -3 0 0 0 0 0 0 0 0 0 0 0 0 0 0 0 0 0 0 0 0 0 0 0 0 0 0 0 0 0 0 0
-16 -13 0 0 0 0 0 0 0 -5 0 -1 0 0 0 0 0 0 0 0 0 0 0 0 0 0 0 0 0 0 0 0 0 0 0 0 0 0 0 0 0 0 0 0
-34 0 0 0 0 0 0 0 0 0 0 0 0 0 0 0 0 0 0 0 0 0 0 0 0 0 0 0 0 0 0 0 0 0 0 0 0 0 0 0 0 0 0 0
-44 -18 -10 0 0 0 -3 0 0 0 0 0 0 0 0 0 0 0 0 0 0 0 0 0 0 0 0 0 0 0 0 0 0 0 0 0 0 0 0 0 0 0 0 0
-28 -13 -1 -6 0 -4 0 0 0 0 0 0 0 0 0 0 0 0 0 0 0 0 0 0 0 0 0 0 0 0 0 0 0 0 0 0 0 0 0 0 0 0 0 0
-2 -19 -11 -14 -22 0 0 0 0 0 0 0 0 0 0 0 0 0 0 0 0 0 0 0 0 0 0 0 0 0 0 0 0 0 0 0 0 0 0 0 0 0 0 0
0 -29 0 -3 -2 -2 0 0 0 0 -2 0 0 0 0 0 0 0 0 0 0 0 0 0 0 0 0 0 0 0 0 0 0 0 0 0 0 0 0 0 0 0 0 0
0 -32 -10 -6 -7 -8 0 0 0 -9 0 0 0 0 0 0 0 0 0 0 0 0 0 0 0 0 0 0 0 0 0 0 0 0 0 0 0 0 0 0 0 0 0 0
0 0 0 0 0 0 0 0 -2 0 0 0 0 0 0 0 0 0 0 0 0 0 0 0 0 0 0 0 0 0 0 0 0 0 0 0 0 0 0 0 0 0 0 0
0 0 0 -47 -2 -41 0 0 0 0 0 0 0 0 0 0 0 0 0 0 0 0 0 0 0 0 0 0 0 0 0 0 0 0 0 0 0 0 0 0 0 0 0 0
0 0 0 0 0 0 0 0 0 0 0 0 0 0 0 0 0 0 0 0 0 0 0 0 0 0 0 0 0 0 0 0 0 0 0 0 0 0 0 0 0 0 0 0
0 -4 0 0 0 0 0 0 0 0 0 0 0 0 0 0 0 0 0 0 0 0 0 0 0 0 0 0 0 0 0 0 0 0 0 0 0 0 0 0 0 0 0 0
0 0 0 0 0 0 0 0 0 0 0 0 0 0 0 0 0 0 0 0 0 0 0 0 0 0 0 0 0 0 0 0 0 0 0 0 0 0 0 0 0 0 0 0
Wind_Speed
26 31 33 30 30 30 27 30 33 31 30 34 39 45 45 44 44 46 48 46 48 50 48 46 45 41 37 32 26 20 17 15 14 16 17 18 16 18 19 18 17 17 18 18
30 40 30 27 29 31 32 35 36 33 31 33 40 49 48 46 47 44 45 45 44 43 42 40 39 39 38 39 32 26 20 18 15 16 17 19 20 22 22 22 21 19 19 19
34 30 28 29 30 34 36 38 36 38 36 40 43 51 45 40 38 39 40 43 41 42 42 41 41 40 35 34 31 27 24 23 19 17 19 20 23 25 25 23 23 22 21 22
34 32 26 29 32 29 38 30 33 37 37 40 30 48 40 37 38 36 37 36 36 36 37 37 37 36 33 30 27 27 26 24 21 19 18 19 21 22 20 22 22 24 24 23
32 30 32 30 30 27 32 24 28 31 36 41 38 41 37 28 33 36 37 36 35 30 29 33 31 27 22 21 21 22 20 20 21 21 20 21 24 24 27 27 26 24 24 23
32 25 27 33 29 25 23 30 29 29 32 45 39 38 42 34 30 27 26 27 24 23 24 22 18 15 16 16 17 17 16 17 18 18 19 20 23 25 28 29 30 29 27 26
33 35 28 25 27 25 26 27 37 40 42 47 33 37 47 37 31 30 30 29 25 23 19 17 16 15 15 16 17 18 18 19 20 20 21 23 26 29 31 32 33 32 32 31
37 40 33 26 29 30 30 31 37 47 47 45 36 47 41 29 27 27 27 30 30 25 18 15 15 15 15 16 18 19 20 21 22 23 24 25 26 28 29 30 30 32 32 32
33 37 26 24 25 25 30 39 29 35 36 44 42 42 43 41 41 37 32 27 27 22 17 15 14 15 17 18 19 21 22 23 25 26 27 28 29 30 31 32 33 34 34 34
29 35 27 25 24 27 27 23 35 36 46 52 47 48 47 38 37 35 30 27 26 20 17 16 16 17 18 19 21 22 24 25 27 28 29 30 31 32 33 34 35 36 37 37
31 34 33 24 32 30 30 33 30 32 39 47 52 47 34 36 34 33 32 31 24 18 16 15 16 18 19 20 22 24 25 27 28 29 31 32 32 34 34 35 36 37 38 38
32 33 42 40 30 31 35 36 33 39 41 43 51 58 29 27 26 24 27 26 19 16 15 16 18 19 20 21 23 25 27 28 29 31 32 33 34 35 36 37 37 37 39 38
24 34 42 41 36 32 35 37 36 38 36 48 51 55 33 35 38 38 36 29 20 18 17 17 18 20 21 23 26 28 29 30 31 32 33 34 35 36 37 37 38 39 39 40
19 30 37 46 36 27 35 37 37 38 45 50 49 55 46 38 34 31 25 20 17 17 18 20 22 23 24 26 29 30 30 31 32 33 34 35 36 37 37 37 38 38 39 39
27 36 35 39 34 32 36 35 33 37 42 45 50 48 52 38 33 27 22 21 21 23 25 26 26 26 26 28 29 31 31 32 32 32 34 35 37 36 36 37 37 37 37 38
31 41 37 47 42 42 44 37 33 34 38 42 46 50 45 36 32 34 35 36 36 35 34 31 30 29 31 30 31 31 31 31 32 32 33 35 35 36 36 36 37 37 37 38
37 42 42 53 43 41 49 46 44 42 39 38 45 43 51 44 39 38 37 38 39 41 38 32 30 30 30 29 29 31 30 29 31 32 33 33 34 35 36 36 37 38 39 39
34 39 40 48 43 59 46 42 41 43 44 41 41 43 45 42 38 35 34 34 34 32 31 28 27 26 25 26 28 27 27 27 29 30 31 32 34 35 36 36 37 38 38 39
30 36 42 43 45 47 41 41 40 40 47 37 38 36 35 38 36 40 37 34 35 33 30 27 23 23 22 24 23 23 24 24 26 28 30 32 33 34 35 36 37 37 38 38
29 33 41 45 53 57 43 42 35 31 49 40 30 30 44 33 39 39 35 32 32 29 24 21 20 17 18 18 18 19 21 22 26 28 30 32 33 35 36 36 37 36 36 38
27 30 43 46 47 44 41 36 27 40 42 32 32 31 50 34 31 42 29 26 22 21 17 16 15 16 17 17 18 20 21 25 26 29 31 33 34 35 36 38 38 38 38 38
32 32 35 36 45 56 33 36 36 30 34 36 34 34 34 33 33 32 29 24 19 16 15 14 14 15 16 17 19 21 23 25 27 30 32 33 34 36 37 38 38 38 38 38
44 35 38 36 40 35 34 40 40 36 35 29 31 31 29 28 28 24 21 17 16 15 15 14 14 14 17 19 20 23 25 28 30 32 34 35 35 35 37 38 39 38 37 38
39 35 43 41 50 46 44 37 36 26 29 29 32 25 19 26 24 23 18 15 15 16 16 15 15 17 19 21 23 25 27 29 32 34 35 35 37 37 36 36 36 36 37 39
37 34 44 44 51 39 41 36 38 35 33 33 27 25 22 17 20 19 16 16 16 17 18 18 18 20 22 24 26 27 28 30 33 34 35 36 36 37 37 35 35 36 35 36
36 46 46 54 49 37 45 30 27 30 28 26 24 24 23 17 15 13 17 17 17 17 17 19 20 22 24 26 27 29 29 31 34 35 36 37 37 37 38 39 40 35 36 38
Wind_Direction
264 260 258 261 263 267 275 274 274 277 283 281 276 273 271 270 271 269 270 273 270 267 269 273 275 279 282 287 290 290 286 281 278 282 280 283 275 284 289 288 289 287 286 284
261 257 263 267 265 265 267 270 272 279 284 283 279 271 271 269 267 270 269 271 272 274 275 277 280 280 283 283 285 285 283 284 278 279 285 287 292 290 289 292 291 288 287 285
257 267 261 263 264 263 264 266 271 274 282 282 282 274 273 277 276 275 274 274 277 275 275 277 279 280 284 287 288 284 282 283 283 282 287 290 293 295 295 292 291 289 290 290
261 261 266 259 261 265 266 274 276 276 280 274 289 275 276 278 278 279 280 282 282 283 282 283 282 284 288 291 297 293 286 284 284 285 284 283 286 288 289 291 293 293 291 290
260 264 258 262 265 265 269 280 279 278 275 277 277 276 276 284 283 284 284 286 287 291 295 289 290 293 300 303 307 308 303 294 291 290 287 289 289 292 296 298 297 295 294 291
261 274 269 264 268 266 279 272 280 281 278 270 272 271 274 282 291 295 301 301 302 300 305 308 307 308 309 316 320 323 324 322 315 308 303 299 299 300 300 300 300 300 297 295
263 263 272 273 267 270 268 269 268 269 268 268 279 273 274 285 289 293 294 295 300 306 312 315 315 313 314 318 319 320 323 321 320 320 317 311 306 302 301 302 303 303 303 300
258 263 258 265 265 268 260 261 265 267 267 271 275 270 275 288 298 300 295 292 294 298 301 307 312 317 318 317 317 317 316 315 317 318 316 315 314 312 311 312 310 307 305 305
262 264 277 269 267 263 268 258 268 274 276 273 272 276 281 284 286 292 293 294 298 295 288 296 305 312 315 316 316 315 315 314 314 313 314 314 313 314 314 313 313 310 309 307
267 267 271 267 270 264 267 269 262 265 269 269 272 275 275 285 288 294 300 294 295 290 284 287 295 303 310 314 315 316 315 314 313 313 313 313 314 315 314 313 313 312 311 309
265 267 272 268 263 261 261 264 269 271 266 271 273 274 288 285 288 293 296 296 289 284 281 286 294 301 306 311 315 316 316 314 313 313 313 314 316 317 318 315 314 312 311 312
258 270 264 265 276 270 261 265 261 266 269 270 272 270 290 295 295 300 306 311 296 282 279 285 293 298 303 308 312 315 315 315 314 314 315 316 317 317 316 315 314 316 312 313
254 263 264 269 270 271 266 262 264 265 273 268 270 273 290 281 282 290 294 297 288 281 283 287 291 295 301 305 309 311 312 313 314 315 315 316 318 318 317 316 314 314 313 313
257 265 260 261 271 271 267 266 262 262 265 269 269 274 276 285 288 291 293 294 288 283 283 286 289 294 300 303 306 309 309 312 313 315 316 318 318 319 319 319 318 317 316 314
258 265 264 266 272 276 275 272 268 261 264 267 273 274 276 279 282 282 286 289 287 286 285 284 287 291 297 304 306 308 309 312 314 315 316 317 318 319 320 320 320 320 319 318
259 265 268 269 271 270 270 274 274 267 266 271 273 276 278 286 279 275 277 280 281 282 284 283 284 287 294 301 304 308 309 312 315 316 317 319 320 321 321 321 321 322 322 322
261 263 266 267 270 270 268 266 268 272 272 272 271 273 279 280 279 276 277 279 279 278 279 278 282 288 293 298 303 306 310 314 316 318 319 321 321 321 321 321 322 321 321 321
264 264 265 268 270 265 271 272 272 272 270 271 274 280 281 281 282 281 278 277 280 281 282 281 284 288 293 300 304 308 312 316 318 320 322 323 323 323 322 322 321 322 323 322
264 266 270 269 270 273 276 273 270 270 272 270 274 276 273 283 284 280 277 276 279 280 282 281 282 289 296 303 308 311 316 319 322 324 325 326 326 325 324 323 323 323 324 324
264 263 266 268 268 270 278 274 277 278 274 277 264 265 280 282 280 280 282 279 278 281 280 278 282 291 298 306 312 316 318 322 323 327 327 327 326 325 324 323 323 324 324 322
271 271 264 267 270 274 278 283 282 267 275 275 275 276 269 278 268 279 287 285 284 281 278 281 285 289 298 307 312 313 317 319 325 326 326 326 325 324 323 321 321 321 321 321
267 272 272 272 273 273 274 276 262 268 278 277 281 284 285 281 281 280 280 280 280 277 278 280 283 290 300 308 310 311 316 322 324 324 325 326 325 324 323 322 322 322 320 320
265 266 274 270 279 283 276 269 277 275 278 279 282 288 285 281 283 287 285 283 279 278 279 284 286 293 302 309 313 313 316 320 321 323 324 324 325 325 323 321 320 320 322 321
270 274 270 277 271 278 278 276 273 270 275 278 290 290 285 288 286 286 282 276 276 278 282 287 290 294 300 307 312 314 318 320 320 320 321 322 320 322 326 327 325 322 322 320
275 276 269 274 263 282 282 280 274 279 279 279 284 280 287 288 287 279 273 271 277 280 283 288 292 297 302 309 311 315 319 321 319 319 319 319 321 322 323 327 327 323 324 322
275 270 268 268 276 284 283 290 276 279 277 274 275 280 286 289 278 280 275 280 281 282 287 292 297 302 306 309 312 315 319 319 318 317 318 319 321 322 322 322 321 325 321 320